Baudette, MN

3:03 AM CDT on October 17, 2017 (GMT -0500)
Baudette International

Weather History for KBDE - March, 2013

Change the Weather History Date:

Tuesday, March 19, 2013

  Actual Average Record
Temperature  
Mean Temperature 8 °F -  
Max Temperature 17 °F 39 °F 77 °F (2012)
Min Temperature 0 °F 15 °F -14 °F (1949)
Degree Days  
Heating Degree Days 56    
Moisture  
Dew Point -1 °F    
Average Humidity 67    
Maximum Humidity 87    
Minimum Humidity 54    
Precipitation  
Precipitation 0.00 in - - ()
Sea Level Pressure  
Sea Level Pressure 30.09 in    
Wind  
Wind Speed 14 mph (NW)    
Max Wind Speed 25 mph    
Max Gust Speed 31 mph    
Visibility 10 miles    
Events      
Averages and records for this station are not official NWS values.
T = Trace of Precipitation, MM = Missing Value Source: NWS Daily Summary

Daily Weather History Graph

Daily Weather History Graph

Search for Another Location

Airport or City:

Trip Planner

Search our weather history database for the weather conditions in past years. The results will help you decide how hot, cold, wet, or windy it might be!

Date:

Astronomy

Mar. 19, 2013 Rise Set
Actual Time 7:22 AM CDT 7:30 PM CDT
Civil Twilight 6:51 AM CDT 8:01 PM CDT
Nautical Twilight 6:14 AM CDT 8:38 PM CDT
Astronomical Twilight 5:36 AM CDT 9:16 PM CDT
Moon 11:46 AM CDT (3/19) 2:45 AM CDT (3/19)
Length of Visible Light 13h 10m
Length of Day
12h 07m
Waxing Crescent, 50% of the Moon is Illuminated
Mar 19
Waxing Crescent
Mar 19
First Quarter
Mar 27
Full
Apr 2
Last Quarter
Apr 10
New

Hourly Weather History & Observations

Time (CDT) Temp. Windchill Dew Point Humidity Pressure Visibility Wind Dir Wind Speed Gust Speed Precip Events Conditions
4:53 AM 3.9 °F -16.1 °F -0.0 °F 84% 29.91 in 10.0 mi NW 18.4 mph - N/A   Clear
5:53 AM 1.0 °F -11.7 °F -2.0 °F 87% 29.95 in 10.0 mi WNW 6.9 mph - N/A   Clear
6:53 AM -0.0 °F -16.3 °F -4.0 °F 83% 29.98 in 10.0 mi NW 10.4 mph - N/A   Clear
7:53 AM -0.9 °F -16.4 °F -5.1 °F 83% 30.00 in 10.0 mi NW 9.2 mph - N/A   Clear
8:53 AM -0.0 °F -16.3 °F -5.1 °F 79% 30.02 in 10.0 mi WNW 10.4 mph 16.1 mph N/A   Clear
9:53 AM 3.0 °F -11.5 °F -4.0 °F 73% 30.05 in 10.0 mi WNW 9.2 mph 19.6 mph N/A   Clear
10:53 AM 6.1 °F -9.5 °F -2.0 °F 69% 30.06 in 10.0 mi WNW 11.5 mph - N/A   Clear
11:53 AM 10.0 °F -4.5 °F -0.0 °F 64% 30.07 in 10.0 mi NW 11.5 mph 18.4 mph N/A   Clear
12:53 PM 12.9 °F -3.4 °F 1.0 °F 59% 30.07 in 10.0 mi WNW 16.1 mph 25.3 mph N/A   Clear
1:53 PM 15.1 °F 1.1 °F 1.9 °F 56% 30.08 in 10.0 mi WNW 12.7 mph 21.9 mph N/A   Clear
2:53 PM 16.0 °F 1.7 °F 3.0 °F 57% 30.08 in 10.0 mi WNW 13.8 mph 23.0 mph N/A   Clear
3:53 PM 17.1 °F 3.0 °F 3.0 °F 54% 30.10 in 10.0 mi NW 13.8 mph 21.9 mph N/A   Clear
4:53 PM 16.0 °F -1.3 °F 3.0 °F 57% 30.12 in 10.0 mi NW 20.7 mph 27.6 mph N/A   Clear
5:53 PM 14.0 °F -5.5 °F 1.9 °F 59% 30.15 in 5.0 mi NW 25.3 mph 31.1 mph N/A   Haze
6:53 PM 12.0 °F -6.5 °F -0.0 °F 59% 30.18 in 7.0 mi NW 20.7 mph 29.9 mph N/A   Clear
7:53 PM 10.0 °F -7.6 °F -0.9 °F 61% 30.19 in 10.0 mi NW 17.3 mph - N/A   Clear
8:53 PM 9.0 °F -5.9 °F -2.9 °F 59% 30.20 in 10.0 mi NW 11.5 mph - N/A   Clear
9:53 PM 8.1 °F -7.0 °F -4.0 °F 58% 30.20 in 10.0 mi WNW 11.5 mph 23.0 mph N/A   Clear
10:53 PM 6.1 °F -13.8 °F -4.0 °F 63% 30.21 in 10.0 mi NW 19.6 mph - N/A   Clear
11:53 PM 5.0 °F -15.2 °F -4.0 °F 66% 30.21 in 10.0 mi NW 19.6 mph 26.5 mph N/A   Clear